DW3478 Weather Reports


time (UTC)temp
C
wind
direction
speed
KPH
gust
KPH
rain 1hr
cm
rain 24hr
cm
rain mn
cm
humidity
%
barometer
mb
20181211180809 17 142 3.2 4.8 0.00 0.00 0.00 73 1025.8
20181211173809 17 142 3.2 4.8 0.00 0.00 0.00 72 1025.5
20181211171809 17 142 3.2 8.0 0.00 0.00 0.00 71 1025.4
20181211170809 18 142 4.8 9.7 0.00 0.00 0.00 71 1025.5
20181211164809 18 142 8.0 11.3 0.00 0.00 0.00 70 1025.4
20181211161810 18 142 6.4 14.5 0.00 0.00 0.00 71 1025.5
20181211160809 18 142 8.0 11.3 0.00 0.00 0.00 70 1025.3
20181211155809 18 142 8.0 11.3 0.00 0.00 0.00 68 1025.6
20181211152810 18 141 6.4 11.3 0.00 0.00 0.00 69 1025.4
20181211151809 18 141 8.0 16.1 0.00 0.00 0.00 70 1025.3
20181211150809 18 139 9.7 20.9 0.00 0.00 0.00 72 1025.2
20181211145808 18 139 11.3 19.3 0.00 0.00 0.00 72 1025.0
20181211144809 18 137 11.3 19.3 0.00 0.00 0.00 71 1025.0
20181211143809 18 134 14.5 19.3 0.00 0.00 0.00 71 1024.9
20181211142810 18 131 12.9 19.3 0.00 0.00 0.00 72 1025.1
20181211140810 18 106 9.7 19.3 0.00 0.00 0.00 67 1025.3
20181211134810 18 102 8.0 11.3 0.00 0.00 0.00 71 1025.6
20181211133809 19 102 6.4 11.3 0.00 0.00 0.00 72 1025.7
20181211132810 19 101 8.0 12.9 0.00 0.00 0.00 71 1025.7
20181211131809 18 98 6.4 11.3 0.00 0.00 0.00 71 1025.8
20181211125809 18 97 8.0 12.9 0.00 0.00 0.00 68 1025.9
20181211120809 18 51 3.2 9.7 0.00 0.00 0.00 71 1027.0
20181211115809 18 51 4.8 8.0 0.00 0.00 0.00 72 1027.0
20181211114809 17 51 3.2 9.7 0.00 0.00 0.00 74 1027.2
20181211112810 18 51 4.8 8.0 0.00 0.00 0.00 75 1027.4
20181211111809 18 51 4.8 9.7 0.00 0.00 0.00 75 1027.5
20181211110810 18 51 6.4 11.3 0.00 0.00 0.00 72 1027.4
20181211105809 17 51 8.0 11.3 0.00 0.00 0.00 74 1027.1
20181211104809 17 51 4.8 11.3 0.00 0.00 0.00 74 1027.1
20181211103810 17 51 4.8 8.0 0.00 0.00 0.00 74 1027.2
20181211102809 17 51 4.8 11.3 0.00 0.00 0.00 74 1027.1
20181211101809 17 51 6.4 9.7 0.00 0.00 0.00 75 1027.0
20181211100810 17 51 3.2 4.8 0.00 0.00 0.00 71 1026.8
20181211094809 17 51 1.6 4.8 0.00 0.00 0.00 71 1026.7
20181211093809 17 51 4.8 9.7 0.00 0.00 0.00 74 1026.4
20181211092809 17 51 6.4 9.7 0.00 0.00 0.00 72 1026.2
20181211090809 17 51 4.8 8.0 0.00 0.00 0.00 64 1026.0
20181211085809 17 51 0.0 8.0 0.00 0.00 0.00 65 1025.9
20181211084810 16 51 4.8 9.7 0.00 0.00 0.00 66 1025.8
20181211083809 16 51 8.0 14.5 0.00 0.00 0.00 66 1025.9
20181211081809 16 32 6.4 25.7 0.00 0.00 0.00 67 1025.6
20181211080810 15 10 9.7 14.5 0.00 0.00 0.00 69 1025.6
20181211075809 15 10 4.8 14.5 0.00 0.00 0.00 73 1025.5
20181211074809 15 10 8.0 19.3 0.00 0.00 0.00 72 1025.5
20181211073810 15 10 4.8 9.7 0.00 0.00 0.00 73 1025.5
20181211072809 15 10 1.6 8.0 0.00 0.00 0.00 78 1025.2
20181211071810 15 10 4.8 9.7 0.00 0.00 0.00 76 1025.0
20181211070809 15 10 4.8 8.0 0.00 0.00 0.00 75 1025.0
20181211064809 15 10 6.4 11.3 0.00 0.00 0.00 69 1024.8
20181211061809 15 10 4.8 8.0 0.00 0.00 0.00 71 1025.0
20181211055810 15 10 4.8 11.3 0.00 0.00 0.00 69 1024.7
20181211054810 15 10 6.4 14.5 0.00 0.00 0.00 71 1024.6
20181211053810 15 10 4.8 11.3 0.00 0.00 0.00 70 1024.5
20181211051810 15 10 8.0 11.3 0.00 0.00 0.00 69 1024.3
20181211050809 15 10 4.8 9.7 0.00 0.00 0.00 73 1024.1
20181211044809 15 10 6.4 8.0 0.00 0.00 0.00 75 1024.6
20181211041809 15 10 4.8 8.0 0.00 0.00 0.00 74 1024.4
20181211040810 15 10 3.2 4.8 0.00 0.00 0.00 74 1024.5
20181211035810 15 10 4.8 8.0 0.00 0.00 0.00 73 1024.2
20181211034808 15 10 4.8 9.7 0.00 0.00 0.00 74 1024.0
20181211033810 15 10 4.8 8.0 0.00 0.00 0.00 73 1024.1
20181211031809 15 10 6.4 9.7 0.00 0.00 0.00 72 1024.2
20181211030809 15 10 6.4 9.7 0.00 0.00 0.00 71 1024.2
20181211023809 15 10 1.6 8.0 0.00 0.00 0.00 71 1024.1
20181211022809 15 10 1.6 4.8 0.00 0.00 0.00 71 1024.2
20181211021809 15 10 3.2 8.0 0.00 0.00 0.00 71 1024.4
20181211020810 15 10 3.2 8.0 0.00 0.00 0.00 72 1024.4
20181211015809 15 10 3.2 8.0 0.00 0.00 0.00 73 1024.4
20181211014810 15 10 1.6 4.8 0.00 0.00 0.00 71 1024.5
20181211012810 16 10 4.8 4.8 0.00 0.00 0.00 71 1024.6
20181211011809 16 10 4.8 8.0 0.00 0.00 0.00 71 1024.5
20181211010809 16 10 4.8 9.7 0.00 0.00 0.00 71 1024.6
20181211005809 16 10 4.8 8.0 0.00 0.00 0.00 71 1024.7
20181211004809 16 10 4.8 8.0 0.00 0.00 0.00 70 1024.6
20181211003809 16 10 4.8 4.8 0.00 0.00 0.00 69 1024.6
20181211002810 16 10 1.6 8.0 0.00 0.00 0.00 69 1024.6
20181211001809 16 10 0.0 4.8 0.00 0.00 0.00 67 1024.7
20181210234809 17 3 11.3 19.3 0.00 0.00 0.00 66 1024.8
20181210233809 16 282 6.4 9.7 0.00 0.00 0.00 68 1024.9
20181210232810 16 282 3.2 8.0 0.00 0.00 0.00 70 1025.1
20181210231809 17 282 3.2 9.7 0.00 0.00 0.00 70 1025.3
20181210230809 17 282 6.4 14.5 0.00 0.00 0.00 71 1025.2
20181210225809 17 281 8.0 19.3 0.00 0.00 0.00 71 1025.1
20181210223809 17 271 4.8 11.3 0.00 0.00 0.00 68 1025.3
20181210222809 17 271 3.2 8.0 0.00 0.00 0.00 69 1025.5
20181210221809 17 271 1.6 8.0 0.00 0.00 0.00 69 1025.6
20181210220809 17 271 1.6 11.3 0.00 0.00 0.00 70 1025.6
20181210215809 17 271 0.0 16.1 0.00 0.00 0.00 70 1025.6
20181210213809 16 262 8.0 14.5 0.00 0.00 0.00 71 1025.6
20181210212809 16 260 3.2 9.7 0.00 0.00 0.00 72 1025.4
20181210211809 16 259 8.0 14.5 0.00 0.00 0.00 74 1025.5
20181210210810 15 258 4.8 14.5 0.00 0.00 0.00 76 1025.4
20181210203809 15 255 0.0 4.8 0.00 0.00 0.00 77 1025.0
20181210202809 15 255 0.0 4.8 0.00 0.00 0.00 78 1025.0
20181210201809 16 255 1.6 11.3 0.00 0.00 0.00 78 1024.8
20181210194847 16 255 0.0 3.2 0.00 0.00 0.00 78 1024.7
20181210193809 16 255 0.0 4.8 0.00 0.00 0.00 78 1024.6
20181210192810 16 255 0.0 4.8 0.00 0.00 0.00 78 1024.5
20181210191809 16 255 1.6 4.8 0.00 0.00 0.00 78 1024.5
20181210190810 16 255 3.2 4.8 0.00 0.00 0.00 78 1024.4
20181210184810 16 255 1.6 4.8 0.00 0.00 0.00 78 1024.2
20181210183809 16 255 0.0 0.0 0.00 0.00 0.00 77 1024.0